Regional Weather Roundup
Issued by NWS Portland, ME

Home | Current Version | Previous Version | Text Only | Print | Product List | Glossary On
Versions: 1 2 3 4 5 6 7 8 9 10 11 12 13 14 15 16 17 18 19 20 21 22 23 24 25 26 27 28 29 30 31 32 33 34 35 36 37 38 39 40 41 42 43 44 45 46 47 48 49 50
000
ASUS41 KGYX 261710
RWRGYX
WEATHER ROUNDUP FOR MAINE AND NEW HAMPSHIRE
NATIONAL WEATHER SERVICE GRAY ME
100 PM EDT WED APR 26 2017

MEZ002-005-006-010-012-015-018-020-021-024-026-027-029-261800-
MAINE

CITY           SKY/WX    TMP DP  RH WIND       PRES   REMARKS
PORTLAND       DRZL/FOG  52  51  97 VRB3      29.96F VSB 1
SANFORD        RAIN      52  50  93 NE9       29.93F FOG
BAR HARBOR     CLOUDY    54  53  97 S13       30.04F
WISCASSET      LGT RAIN  56  55  97 E8G18     29.98F FOG
ROCKLAND       FOG       49  49 100 E7        30.00F VSB 1/4
FRYEBURG       LGT RAIN  50  49  96 N6        29.97F FOG
LEWISTONAUBURN LGT RAIN  50  50 100 N8        29.97F FOG
AUGUSTA        LGT RAIN  51  49  92 NE5       29.99F FOG
WATERVILLE     LGT RAIN  52  51  97 NE3       29.97F
BANGOR         LGT RAIN  54  53  97 SE7       30.03F FOG
GREENVILLE       N/A     48  48 100 VRB6G17   29.99F
MILLINOCKET    CLOUDY    50  49  96 CALM      30.06F FOG
HOULTON        CLOUDY    51  51 100 VRB3      30.06F FOG
PRESQUE ISLE   LGT RAIN  50  48  93 S10       30.05F
FRENCHVILLE    LGT RAIN  46  44  93 S8        30.02F FOG
CARIBOU        CLOUDY    50  47  89 S10       30.04F
$$

NHZ002-005-008-009-011-012-014-261800-
NEW HAMPSHIRE

CITY           SKY/WX    TMP DP  RH WIND       PRES   REMARKS
PORTSMOUTH     DRZL/FOG  54  54  99 NE5       29.89F VSB 3/8
ROCHESTER      CLOUDY    51  49  92 N9        29.91F FOG
NASHUA         CLOUDY    53  53 100 VRB6      29.89F FOG
MANCHESTER     DRIZZLE   53  50  89 NE8       29.88S FOG
CONCORD        LGT RAIN  53  51  93 NE9       29.90F FOG
LACONIA        LGT RAIN  50  48  93 E13       29.92F
PLYMOUTH       CLOUDY    53  50  90 CALM      29.92F FOG
BERLIN         CLOUDY    57  49  74 CALM      29.95F
WHITEFIELD     LGT RAIN  60  50  69 NE10      29.91F
JAFFREY        LGT RAIN  52  52 100 VRB3      29.88S FOG
KEENE          CLOUDY    57  51  80 NE6       29.86F
LEBANON        CLOUDY    59  52  77 NE9       29.88F
MT WASHINGTON  LGT RAIN  43  43 100 SE52G61     N/A  VSB 1/16
$$

VTZ005-007-008-261800-
VERMONT

CITY           SKY/WX    TMP DP  RH WIND       PRES   REMARKS
ST JOHNSBURY     N/A     56  53  90 MISG      29.90F
MONTPELIER     CLOUDY    53  52  96 N3        29.94F
BURLINGTON     CLOUDY    63  52  67 CALM      29.86F
$$

MAZ007-012-024-CTZ003-RIZ002-NYZ038-NYZ072-261800-
SOUTHERN NEW ENGLAND AND NY

CITY           SKY/WX    TMP DP  RH WIND       PRES   REMARKS
BOSTON         LGT RAIN  55  55 100 E13       29.85F VSB 1/4
WORCESTER      RAIN      50  48  93 N9        29.84F VSB 1/2
NANTUCKET      FOG       55  54  96 SE23G31   29.82S VSB 1
PROVIDENCE     CLOUDY    59  59 100 S3        29.83S FOG
HARTFORD       CLOUDY    56  53  90 N9        29.82F
ALBANY         CLOUDY    62  55  77 NW6       29.83F
NEW YORK CITY  CLOUDY    58  53  84 NE9       29.77S
$$

ANZ081-ANZ082-ANZ150-NHZ014-MEZ023>029-261800-
COASTAL MARINE OBSERVATIONS

STATION/POSITION TIME  TEMP    WIND        PRES    WAVE
                       AIR SEA DIR/SP/G            HT/PER
                 (UTC) (F)     (DEG/KT/KT) (MB)    (FT/S)
MOUNT DESERT ROC 1700   47                 1016.5F
MATINICUS ROCK   1600   47     130/ 22/ 26 1014.9F
ISLE OF SHOALS   1600   50      70/  7/  8 1012.7F
JEFFREYS LEDGE   1606      44                N/A     7/ 7
CASHES LEDGE BUO 1650   50 43              1013.6F   7/ 6
GEORGES BANK BUO 1550   54 42              1017.2   11/10
$$

.............KEY..............
   WCI - WIND CHILL
   TC  - TEMPERATURE IN CELSIUS
   VSB - VISIBILITY IN MILES
   HX  - HEAT INDEX
   FAIR- INDICATES FEW OR NO CLOUDS BELOW 12,000 FT, WITH NO
         SIGNIFICANT WEATHER AND/OR OBSTRUCTIONS TO VISIBILITY.






USA.gov is the U.S. government's official web portal to all federal, state and local government web resources and services.